Location: Kellogg
(38.0159°N, 90.0546°W)
Time: 23:17:45
(UTC+00:00)

A-11 Canister half - All Passes

Search period start: 11 September 2024 00:00
Search period end: 21 September 2024 00:00
Orbit: 1515 x 1684 km, 47.2° (Epoch: 11 September)

Date Brightness Start Highest point End Pass type
(mag) Time Alt. Az. Time Alt. Az. Time Alt. Az.
11 Sep - 00:09:37 10° SSW 00:18:15 42° SE 00:26:42 10° ENE daylight
11 Sep - 02:13:21 10° WSW 02:22:43 75° NNW 02:32:00 10° ENE visible
11 Sep - 04:19:46 10° WNW 04:28:40 48° N 04:37:36 10° ENE visible
11 Sep - 06:25:41 10° WNW 06:34:52 63° NNE 06:44:12 10° ESE visible
11 Sep - 08:30:46 10° WNW 08:39:47 57° SW 08:49:02 10° SSE visible
11 Sep - 10:39:01 10° W 10:43:16 14° WSW 10:47:33 10° SSW visible
11 Sep - 23:46:50 10° SSW 23:55:19 39° SE 00:03:39 10° ENE daylight
12 Sep - 01:50:19 10° WSW 01:59:42 78° NNW 02:09:00 10° ENE visible
12 Sep - 03:56:41 10° WNW 04:05:36 49° N 04:14:32 10° ENE visible
12 Sep - 06:02:41 10° WNW 06:11:50 61° NNE 06:21:07 10° E visible
12 Sep - 08:07:46 10° WNW 08:16:50 61° SW 08:26:09 10° SE visible
12 Sep - 10:15:29 10° W 10:20:22 15° SW 10:25:20 10° SSW visible
12 Sep - 23:24:03 10° SSW 23:32:24 36° SE 23:40:36 10° ENE daylight
13 Sep - 01:27:17 10° WSW 01:36:43 81° NNW 01:46:01 10° ENE visible
13 Sep - 03:33:36 10° W 03:42:33 49° N 03:51:28 10° ENE visible
13 Sep - 05:39:40 10° WNW 05:48:48 59° NNE 05:58:02 10° E visible
13 Sep - 07:44:46 10° WNW 07:53:53 64° SW 08:03:13 10° SE visible
13 Sep - 09:52:03 10° W 09:57:28 17° SW 10:03:00 10° SSW visible
13 Sep - 23:01:17 10° SSW 23:09:29 34° SE 23:17:30 10° ENE daylight
14 Sep - 01:04:15 10° WSW 01:13:43 85° NNW 01:23:02 10° ENE visible
14 Sep - 03:10:30 10° W 03:19:29 50° N 03:28:25 10° ENE visible
14 Sep - 05:16:39 10° WNW 05:25:46 58° NNE 05:34:56 10° E visible
14 Sep - 07:21:46 10° WNW 07:30:56 68° SW 07:40:17 10° SE visible
14 Sep - 09:28:43 10° W 09:34:35 19° SW 09:40:34 10° SSW visible
14 Sep - 22:38:33 10° S 22:46:35 32° SE 22:54:24 10° ENE daylight
15 Sep - 00:41:14 10° WSW 00:50:44 88° NNW 01:00:03 10° ENE visible
15 Sep - 02:47:25 10° W 02:56:25 50° N 03:05:22 10° ENE visible
15 Sep - 04:53:39 10° WNW 05:02:43 56° NNE 05:11:51 10° E visible
15 Sep - 06:58:46 10° WNW 07:07:58 72° SW 07:17:21 10° SE visible
15 Sep - 09:05:25 10° W 09:11:41 20° SW 09:18:05 10° S visible
15 Sep - 22:15:51 10° S 22:23:40 29° SE 22:31:18 10° ENE daylight
16 Sep - 00:18:14 10° SW 00:27:45 88° SSE 00:37:03 10° ENE visible
16 Sep - 02:24:19 10° W 02:33:21 51° N 02:42:19 10° ENE visible
16 Sep - 04:30:37 10° WNW 04:39:40 55° NNE 04:48:45 10° E visible
16 Sep - 06:35:47 10° WNW 06:45:00 76° SW 06:54:23 10° SE visible
16 Sep - 08:42:11 10° W 08:48:48 22° SW 08:55:33 10° S night (unlit)
16 Sep - 21:53:10 10° S 22:00:46 27° SE 22:08:09 10° ENE daylight
16 Sep - 23:55:14 10° SW 00:04:45 85° SSE 00:14:04 10° ENE daylight
17 Sep - 02:01:13 10° W 02:10:18 52° NNW 02:19:17 10° ENE visible
17 Sep - 04:07:35 10° WNW 04:16:37 53° NNE 04:25:40 10° E visible
17 Sep - 06:12:47 10° WNW 06:22:02 79° SW 06:31:25 10° SE visible
17 Sep - 08:18:59 10° WNW 08:25:54 24° SW 08:32:57 10° S night (unlit)
17 Sep - 21:30:31 10° S 21:37:51 25° SE 21:45:00 10° ENE daylight
17 Sep - 23:32:15 10° SW 23:41:47 81° SE 23:51:06 10° ENE daylight
18 Sep - 01:38:07 10° W 01:47:14 53° NNW 01:56:15 10° ENE visible
18 Sep - 03:44:33 10° WNW 03:53:34 52° NNE 04:02:35 10° E visible
18 Sep - 05:49:47 10° WNW 05:59:04 83° SW 06:08:27 10° SE visible
18 Sep - 07:55:48 10° WNW 08:03:00 26° SW 08:10:20 10° S night (unlit)
18 Sep - 21:07:55 10° S 21:14:56 23° SE 21:21:48 10° E daylight
18 Sep - 23:09:16 10° SW 23:18:49 77° SE 23:28:06 10° ENE daylight
19 Sep - 01:15:01 10° W 01:24:11 54° NNW 01:33:14 10° ENE visible
19 Sep - 03:21:30 10° WNW 03:30:31 51° N 03:39:30 10° E visible
19 Sep - 05:26:48 10° WNW 05:36:05 87° SSW 05:45:28 10° SE visible
19 Sep - 07:32:39 10° WNW 07:40:06 28° SW 07:47:40 10° S night (unlit)
19 Sep - 20:45:20 10° S 20:52:02 21° SE 20:58:35 10° E daylight
19 Sep - 22:46:17 10° SW 22:55:50 73° SE 23:05:06 10° ENE daylight
20 Sep - 00:51:54 10° W 01:01:08 56° NNW 01:10:13 10° ENE visible
20 Sep - 02:58:27 10° WNW 03:07:28 50° N 03:16:25 10° E visible
20 Sep - 05:03:49 10° WNW 05:13:06 89° NNE 05:22:28 10° ESE visible
20 Sep - 07:09:31 10° WNW 07:17:12 30° SW 07:24:59 10° S night (unlit)
20 Sep - 20:22:48 10° SSE 20:29:07 20° SE 20:35:19 10° E daylight
20 Sep - 22:23:20 10° SW 22:32:52 70° SE 22:42:07 10° ENE daylight
